Погода в Ольшанском

Украина / Николаевская область     47°09′54″N   31°45′28″E
темп.,
°C
ветер,
м/с
пор.,
м/с
влажн.,
%
обл.,
%
осадки,
мм/ч
давл.,
гПа
погр.,
м
16 мая, вс
вс1600:00+14ю227358 0.0 101212
03:00+13ююв0074100 0.0 101210
06:00+13св2273100 0.0 101219
09:00+19всв3459100 0.0 1012367
12:00+23в3441100 0.0 10111165
15:00+23в3444100 0.0 10101375
18:00+23всв3551100 0.0 1008270
21:00+19ссв3456100 0.0 100757
17 мая, пн
пн1700:00+17ссв3569100 0.0 100688
03:00+16св3793100 1.7 1004221
06:00+16ссз5896100 2.9 1002274
09:00+19с577729 3.8 1003599
12:00+22ссв116525 3.6 1001892
15:00+22зюз546947 9.4 1001943
18:00+19зсз698297 3.6 1002732
21:00+16юз4791100 3.8 1004175
18 мая, вт
вт1800:00+15ююз489278 0.0 1004219
03:00+14ю599757 0.7 1004293
06:00+14ююв51097100 1.0 1003287
09:00+16ю7118997 1.1 1003544
12:00+21ююз786574 0.1 10031277
15:00+23юз91150100 0.8 10032247
18:00+19з7961100 1.3 10041626
21:00+13з7128111 1.9 1008563
19 мая, ср
ср1900:00+12з71282100 0.0 1009699
03:00+11з7158091 0.0 1010682
06:00+11зюз614801 0.0 1010462
09:00+16зюз811600 0.0 10111104
12:00+19з9124854 0.0 10122211
15:00+21з911405 0.0 10122648
18:00+20з594759 0.0 10122327
21:00+14ююз46795 0.0 1013111
20 мая, чт
чт2000:00+12ююз22854 0.0 101328
03:00+12ююв1183100 0.0 101310
06:00+12юв3482100 0.0 1013100
09:00+15вюв3370100 0.1 1013195
12:00+19в6746100 0.0 10111207
15:00+21в6845100 0.0 10092283
18:00+17св5106576 0.1 1007254
21:00+17в41074100 0.3 1006279